MST,Max TemperatureF,Mean TemperatureF,Min TemperatureF,Max Dew PointF,MeanDew PointF,Min DewpointF,Max Humidity, Mean Humidity, Min Humidity, Max Sea Level PressureIn, Mean Sea Level PressureIn, Min Sea Level PressureIn, Max VisibilityMiles, Mean VisibilityMiles, Min VisibilityMiles, Max Wind SpeedMPH, Mean Wind SpeedMPH, Max Gust SpeedMPH,PrecipitationIn, CloudCover, Events, WindDirDegrees
2012-10-1,86,70,55,28,24,21,29,18,10,30.26,30.19,30.14,10,10,10,14,7,20,0.00,0,,28
2012-10-2,86,70,55,30,26,21,36,21,10,30.20,30.15,30.09,10,10,10,14,4,25,0.00,0,,267
2012-10-3,84,70,57,30,26,23,31,20,11,30.23,30.18,30.13,10,10,9,17,4,22,0.00,0,,260
2012-10-4,80,66,53,36,31,25,44,28,14,30.29,30.23,30.20,10,10,9,14,3,18,0.00,0,,229
2012-10-5,77,64,50,36,30,27,50,30,16,30.24,30.19,30.13,10,10,9,14,3,20,0.00,0,,277
2012-10-6,75,63,51,36,31,28,44,32,20,30.15,30.10,30.05,10,10,8,13,3,20,0.00,1,,279
2012-10-7,77,62,48,36,32,27,54,33,17,30.13,30.09,30.05,10,10,10,12,3,,0.00,0,,249
2012-10-8,75,62,48,36,34,32,58,37,21,30.17,30.12,30.08,10,10,9,12,4,17,0.00,0,,253
2012-10-9,75,62,48,45,37,34,62,41,25,30.18,30.13,30.08,10,10,5,10,3,,0.00,0,,252
2012-10-10,75,62,50,41,36,32,62,40,23,30.19,30.12,30.06,10,10,9,14,3,23,0.00,0,,207
2012-10-11,71,60,50,55,39,32,100,50,25,30.12,30.06,30.00,10,9,3,18,3,29,0.09,4,,161
2012-10-12,55,48,42,46,38,32,100,65,41,30.19,30.11,30.01,10,10,5,16,6,24,0.07,4,,225
2012-10-13,64,50,37,39,36,32,100,61,37,30.26,30.22,30.18,10,10,10,10,5,,0.00,0,,299
2012-10-14,75,63,51,36,33,28,51,34,19,30.30,30.25,30.20,10,10,5,12,5,17,0.00,0,,62
2012-10-15,75,64,53,34,30,21,47,30,16,30.24,30.17,30.10,10,10,9,9,4,,0.00,0,,115
2012-10-16,78,64,50,32,30,27,50,30,16,30.12,30.05,29.99,10,10,10,15,4,25,0.00,0,,278
2012-10-17,77,64,50,34,32,30,50,34,19,30.16,30.08,30.03,10,10,10,20,5,23,0.00,0,,288
2012-10-18,73,60,48,43,32,10,58,34,16,30.23,30.18,30.14,10,10,9,12,5,17,0.00,0,,290
2012-10-19,80,66,53,30,20,12,35,18,9,30.18,30.11,30.03,10,10,10,10,4,,0.00,0,,339
2012-10-20,73,62,50,37,29,23,43,31,19,30.07,30.02,29.97,10,10,9,13,2,20,0.00,1,,220
2012-10-21,69,61,53,43,35,28,67,39,25,30.05,30.01,29.98,10,10,10,14,4,20,0.00,1,,169
2012-10-22,69,58,46,48,42,36,100,60,28,30.10,30.06,30.02,10,10,10,10,3,,0.00,1,,178
2012-10-23,69,56,42,46,39,30,100,57,23,30.08,30.04,30.00,10,10,10,13,2,16,0.00,0,,189
2012-10-24,66,54,42,37,30,21,81,44,20,30.10,30.03,30.00,10,10,5,16,3,21,0.00,0,,237
2012-10-25,66,55,44,19,10,0,34,18,8,30.18,30.13,30.08,10,10,8,15,6,21,0.00,0,,341
2012-10-26,64,52,39,16,8,0,36,19,9,30.26,30.18,30.13,10,10,9,20,11,25,0.00,0,,39
2012-10-27,68,55,42,23,14,3,29,19,13,30.19,30.13,30.08,10,10,9,9,5,16,0.00,0,,105
2012-10-28,71,56,42,18,12,7,29,17,9,30.23,30.18,30.14,10,10,9,8,3,,0.00,0,,192
2012-10-29,73,60,46,18,14,7,30,20,8,30.29,30.25,30.21,10,10,9,9,3,,0.00,0,,279
2012-10-30,73,60,46,19,14,7,32,19,8,30.25,30.21,30.15,10,10,10,10,3,,0.00,0,,275
2012-10-31,75,60,46,18,13,9,27,18,8,30.22,30.17,30.13,10,10,9,8,3,,0.00,0,,259